Springfield, IL

1:52 AM CST on November 15, 2019 (GMT -0600)
Capital

Weather History for KSPI - October, 2019

Change the Weather History Date:

Friday, October 18, 2019

  Actual Average Record
Temperature  
Mean Temperature 51 °F 54 °F  
Max Temperature 65 °F 66 °F 86 °F (1953)
Min Temperature 36 °F 43 °F 24 °F (1948)
Degree Days  
Heating Degree Days 14 11  
Month to date heating degree days 169 158  
Since 1 July heating degree days 170 239  
Cooling Degree Days 0 0  
Month to date cooling degree days 32 19  
Year to date cooling degree days 1309 1118  
Moisture  
Dew Point 38 °F    
Average Humidity 66    
Maximum Humidity 92    
Minimum Humidity 40    
Precipitation  
Precipitation 0.00 in 0.11 in 2.14 in (1938)
Month to date precipitation 0.68 1.79  
Year to date precipitation 41.23 30.34  
Snow  
Snow 0.00 in 0.00 in T in (1896)
Month to date snowfall 0.0 0.0  
Since 1 July snowfall 0.0 0.0  
Since 1 September snowfall 0.0 0.0  
Snow Depth 0.00 in    
Sea Level Pressure  
Sea Level Pressure 29.98 in    
Wind  
Wind Speed 9 mph (SE)    
Max Wind Speed 16 mph    
Max Gust Speed 24 mph    
Visibility 10 miles    
Events      
T = Trace of Precipitation, MM = Missing Value Source: NWS Daily Summary

Daily Weather History Graph

Daily Weather History Graph

Search for Another Location

Airport or City:

Astronomy

Oct. 18, 2019 Rise Set
Actual Time 7:11 AM CDT 6:15 PM CDT
Civil Twilight 6:44 AM CDT 6:42 PM CDT
Nautical Twilight 6:13 AM CDT 7:13 PM CDT
Astronomical Twilight 5:41 AM CDT 7:45 PM CDT
Moon 9:32 PM CDT (10/18) 11:44 AM CDT (10/18)
Length of Visible Light 11h 57m
Length of Day
11h 03m
Waning Gibbous, 78% of the Moon is Illuminated
Oct 18
Waning Gibbous
Oct 21
Last Quarter
Oct 27
New
Nov 4
First Quarter
Nov 12
Full

Hourly Weather History & Observations

Time (CDT) Temp. Windchill Dew Point Humidity Pressure Visibility Wind Dir Wind Speed Gust Speed Precip Events Conditions
12:52 AM 37.0 °F - 34.0 °F 89% 30.04 in 10.0 mi Calm Calm - N/A   Clear
1:52 AM 37.9 °F 33.5 °F 35.1 °F 89% 30.03 in 10.0 mi East 5.8 mph - N/A   Clear
2:52 AM 37.9 °F 35.5 °F 35.1 °F 89% 30.03 in 10.0 mi ESE 3.5 mph - N/A   Clear
3:52 AM 39.0 °F 36.8 °F 34.0 °F 82% 30.03 in 10.0 mi East 3.5 mph - N/A   Clear
4:52 AM 39.0 °F 35.7 °F 34.0 °F 82% 30.04 in 10.0 mi East 4.6 mph - N/A   Clear
5:52 AM 39.0 °F 36.8 °F 34.0 °F 82% 30.04 in 10.0 mi East 3.5 mph - N/A   Clear
6:52 AM 37.9 °F 33.5 °F 34.0 °F 86% 30.06 in 10.0 mi ESE 5.8 mph - N/A   Clear
7:52 AM 39.9 °F 35.8 °F 36.0 °F 86% 30.06 in 10.0 mi SE 5.8 mph - N/A   Clear
8:52 AM 48.0 °F - 39.0 °F 71% 30.07 in 10.0 mi SSE 5.8 mph - N/A   Clear
9:52 AM 54.0 °F - 41.0 °F 62% 30.06 in 10.0 mi SSE 9.2 mph - N/A   Clear
10:52 AM 57.0 °F - 41.0 °F 55% 30.04 in 10.0 mi South 13.8 mph 21.9 mph N/A   Clear
11:52 AM 60.1 °F - 41.0 °F 49% 30.03 in 10.0 mi SSE 12.7 mph 20.7 mph N/A   Clear
12:52 PM 62.1 °F - 41.0 °F 46% 30.00 in 10.0 mi South 12.7 mph 18.4 mph N/A   Clear
1:52 PM 63.0 °F - 41.0 °F 45% 29.97 in 10.0 mi SSE 13.8 mph - N/A   Clear
2:52 PM 64.0 °F - 41.0 °F 43% 29.94 in 10.0 mi SE 12.7 mph 21.9 mph N/A   Clear
3:52 PM 64.9 °F - 39.9 °F 40% 29.92 in 10.0 mi SSE 12.7 mph 24.2 mph N/A   Clear
4:52 PM 64.0 °F - 39.9 °F 41% 29.91 in 10.0 mi SE 15.0 mph - N/A   Clear
5:52 PM 61.0 °F - 39.0 °F 44% 29.89 in 10.0 mi SSE 8.1 mph 20.7 mph N/A   Clear
6:52 PM 57.9 °F - 39.0 °F 49% 29.90 in 10.0 mi SSE 8.1 mph - N/A   Clear
7:52 PM 57.0 °F - 39.0 °F 51% 29.89 in 10.0 mi SSE 9.2 mph - N/A   Clear
8:52 PM 55.0 °F - 39.9 °F 57% 29.89 in 10.0 mi SSE 10.4 mph - N/A   Clear
9:52 PM 54.0 °F - 39.0 °F 57% 29.89 in 10.0 mi SSE 9.2 mph - N/A   Clear
10:52 PM 54.0 °F - 39.9 °F 59% 29.88 in 10.0 mi SE 8.1 mph - N/A   Clear
11:52 PM 51.1 °F - 39.9 °F 66% 29.87 in 10.0 mi SE 6.9 mph - N/A   Clear